GFSCGP_sfc_temp_000.txt.gz
Temp
70 61 56 61 62 64 63 60 58 61 67 62 59 58 62 63 64 60 59 58 57 59 62 64 64 63 62 61 61 60 60 59 58 56 55 56 56 57 59 60 62 62 63 63
62 57 65 68 66 64 62 58 58 63 66 62 59 59 61 63 64 62 59 57 57 58 60 63 62 61 61 61 60 60 59 59 58 56 57 57 57 58 58 59 60 61 64 63
58 64 71 68 64 62 60 58 58 60 62 63 59 54 59 63 62 63 61 61 59 58 58 60 62 60 60 60 59 60 59 59 59 58 58 57 58 58 58 58 60 61 64 64
62 69 68 64 63 64 55 65 66 63 55 47 59 41 54 57 59 60 61 57 57 58 59 60 60 59 60 61 61 61 60 59 60 58 57 56 55 56 57 58 60 62 64 64
63 64 62 62 64 68 61 66 64 62 54 50 53 42 52 57 54 55 57 58 57 58 59 59 60 62 62 62 61 60 60 61 59 58 57 57 56 56 58 59 60 61 62 63
67 72 69 68 70 70 70 62 59 54 49 39 51 48 46 52 59 57 59 60 60 58 59 60 61 62 62 61 61 60 61 61 61 60 57 58 58 58 58 58 58 57 59 61
62 65 71 72 63 66 61 51 41 36 36 36 53 48 53 59 63 63 59 60 60 61 57 58 59 59 60 61 60 60 60 59 60 61 59 57 57 57 57 57 58 59 59 62
53 51 65 70 65 60 57 53 42 35 34 45 54 46 53 62 69 68 66 62 61 58 58 59 60 60 61 62 61 61 59 58 59 60 59 59 59 59 58 59 59 59 59 60
51 55 68 70 71 68 57 51 58 48 48 44 47 56 60 61 63 62 60 60 59 58 58 59 60 61 60 61 60 60 59 58 59 59 59 59 59 60 59 59 59 59 61 63
58 52 64 69 66 66 64 64 50 44 36 35 44 51 46 55 57 59 58 59 59 58 60 58 60 60 60 61 60 60 60 60 59 58 59 60 59 60 59 60 60 61 61 62
66 54 54 61 57 57 57 51 50 49 48 37 33 43 55 59 61 58 59 61 60 59 61 59 60 61 61 61 61 60 60 61 59 60 59 59 59 60 60 59 59 60 61 62
63 55 51 54 58 61 60 55 51 43 44 47 45 42 61 61 63 64 62 63 62 63 62 61 61 60 60 61 61 60 60 61 61 60 60 59 60 59 58 59 59 60 61 62
65 51 41 44 51 56 55 56 55 52 48 43 41 44 61 63 64 64 62 63 63 63 59 62 60 61 61 62 62 62 61 62 61 62 60 58 58 58 58 58 58 60 60 60
70 52 55 48 51 52 51 57 59 54 45 47 49 54 55 59 61 62 62 63 64 64 63 64 62 62 63 63 63 63 62 62 63 63 60 59 57 58 57 57 58 59 59 59
65 54 54 61 60 58 57 58 58 54 56 50 53 52 54 61 64 67 63 64 64 64 64 65 64 62 63 63 62 66 63 63 64 63 61 59 59 58 58 58 58 58 57 57
59 48 52 49 59 57 54 57 58 59 60 57 56 53 60 63 65 72 64 65 65 66 66 66 67 65 66 67 62 66 64 64 65 64 62 61 60 59 57 57 57 56 55 55
54 54 46 42 52 50 43 53 56 59 60 59 53 59 63 62 63 66 65 67 67 68 68 67 68 67 68 68 67 66 65 64 65 64 64 63 61 60 58 57 57 54 53 52
48 49 47 41 47 36 51 59 61 58 59 58 59 61 63 66 68 67 69 69 69 70 70 69 70 69 70 70 68 68 68 67 66 65 66 65 63 61 58 57 55 53 51 51
52 46 41 40 35 47 52 55 55 53 55 60 60 62 65 68 65 62 70 73 72 72 72 72 72 71 70 71 70 68 69 69 68 67 67 67 66 61 58 57 54 53 52 50
52 48 44 36 36 35 49 59 64 61 47 61 62 61 61 63 59 64 68 75 74 73 75 73 73 72 71 71 71 68 69 69 68 70 70 69 67 64 61 58 55 53 53 53
42 43 39 35 32 43 54 59 62 46 51 62 62 61 61 57 66 66 70 68 74 74 75 75 73 71 71 73 71 70 70 69 72 72 72 70 68 65 63 59 55 55 54 54
44 39 38 37 35 38 59 56 53 55 56 61 62 62 61 62 64 65 69 69 73 74 73 74 73 72 73 74 73 71 70 73 74 74 73 71 69 69 66 62 60 57 55 53
43 47 42 45 44 55 61 59 61 58 59 58 61 66 64 63 64 65 68 68 73 78 75 75 74 73 73 74 75 72 73 74 74 73 72 72 71 70 68 63 60 59 57 57
53 55 49 50 55 56 59 58 60 59 59 61 61 61 61 62 63 64 67 67 72 78 75 75 73 73 71 73 75 76 75 75 75 74 70 71 70 70 68 68 65 63 60 59
54 56 52 52 56 58 57 58 60 61 62 63 64 65 64 63 62 66 66 70 72 75 77 76 74 72 72 74 75 77 77 75 74 75 74 68 70 68 70 69 67 66 65 64
51 54 52 49 54 55 55 58 61 61 62 64 67 64 66 66 67 67 68 70 70 73 76 75 76 75 75 75 76 76 77 75 74 73 74 74 68 66 71 69 68 54 54 51

GFSCGP_sfc_temp_003.txt.gz
Temp
65 59 54 60 62 63 61 57 56 59 65 61 59 58 61 61 59 57 56 55 55 56 60 60 61 61 60 60 58 58 58 57 56 55 55 55 56 57 57 58 60 60 61 62
58 53 63 66 64 61 58 55 54 59 63 60 58 58 59 60 61 57 56 55 55 55 58 59 59 58 59 59 58 58 58 58 56 55 55 55 56 57 57 58 59 62 62 63
58 63 67 64 60 58 57 54 55 56 60 59 54 52 54 59 60 59 58 57 56 56 56 58 59 57 58 59 58 59 58 58 57 57 56 57 57 58 59 59 59 60 62 63
61 66 65 61 59 60 52 62 61 59 53 46 56 40 50 54 57 57 57 54 55 56 56 57 58 56 57 59 59 59 59 57 58 56 57 56 55 55 57 59 59 61 62 63
61 61 60 59 61 63 59 65 60 57 51 46 48 40 49 51 51 52 55 56 54 56 56 56 58 60 59 60 59 58 58 58 57 57 57 57 57 57 59 59 60 59 61 62
65 68 65 65 67 65 68 57 55 49 45 37 48 45 44 49 54 54 56 58 57 56 56 57 59 60 59 59 59 58 58 58 57 57 58 58 57 58 57 56 57 58 60 61
59 61 65 68 60 61 57 49 39 35 35 35 50 45 48 57 59 59 58 57 57 57 55 55 56 57 58 58 58 58 58 57 57 57 57 58 57 56 58 57 58 58 58 60
50 49 61 66 62 58 54 53 40 34 33 44 50 43 52 60 63 63 63 61 58 55 54 55 57 57 59 59 58 58 58 57 57 57 56 57 58 57 57 58 58 58 59 60
50 52 64 67 67 64 55 49 55 46 43 40 44 50 57 57 59 58 56 57 56 56 54 56 57 57 58 59 58 58 57 56 57 58 57 57 58 59 58 58 58 57 59 61
56 48 60 67 65 64 60 61 48 42 34 33 41 45 46 54 56 54 54 54 56 55 54 56 57 57 58 59 58 58 58 57 58 57 57 58 58 59 59 59 59 59 59 60
57 52 51 59 55 56 54 50 48 47 43 36 31 40 54 55 54 55 57 58 57 57 57 58 56 58 59 57 57 58 58 57 57 56 56 57 58 58 59 59 59 59 59 60
59 51 47 52 56 59 58 54 50 43 40 43 41 41 56 56 60 57 57 60 60 60 59 58 57 57 57 58 57 58 58 58 58 58 58 57 57 58 58 58 58 59 59 59
58 48 43 45 50 54 52 54 51 48 45 42 40 43 58 58 59 61 58 60 61 59 56 55 56 57 58 58 58 58 58 59 59 59 57 56 56 56 56 57 58 59 59 59
63 50 52 47 52 52 49 53 54 51 41 45 46 51 55 58 58 61 58 58 60 61 60 59 58 57 58 59 60 61 59 59 59 60 57 56 55 56 56 56 57 58 58 58
58 52 54 59 62 58 55 54 54 51 52 50 54 50 57 61 57 63 59 58 60 59 60 61 59 59 59 58 59 61 60 60 59 60 58 57 56 56 56 56 56 56 56 56
52 48 50 48 57 58 56 57 57 56 54 52 53 52 61 61 61 60 62 61 61 61 62 63 63 62 61 63 60 61 60 60 60 59 59 59 57 57 56 55 54 54 54 54
52 47 44 41 51 50 44 53 54 54 56 56 49 59 61 61 60 62 65 63 63 64 64 64 64 64 65 65 63 60 60 60 61 60 60 60 59 58 56 55 54 52 51 51
49 47 45 40 45 37 53 60 60 59 57 57 58 59 61 62 63 65 63 62 64 66 67 66 67 66 66 67 62 62 61 62 62 61 62 61 59 58 56 55 53 51 49 50
51 45 40 40 33 46 50 53 54 52 53 59 60 60 61 62 59 60 67 67 66 68 69 69 69 68 67 67 64 64 63 63 64 63 63 63 61 58 56 54 52 50 50 49
49 49 47 35 36 38 47 57 61 60 46 59 60 58 58 59 52 63 65 68 68 67 71 70 70 69 68 68 66 65 64 64 64 65 65 65 63 59 56 54 52 50 50 51
42 41 43 34 34 42 53 59 62 45 49 58 62 62 57 56 62 65 64 66 68 70 71 70 69 68 69 69 67 65 65 65 68 69 68 65 64 60 58 54 52 52 52 51
42 38 38 37 34 39 56 56 54 57 57 61 60 58 58 61 63 63 67 65 66 66 66 69 69 69 70 70 68 66 66 69 70 70 68 66 64 65 61 57 53 53 52 51
46 47 41 45 44 53 60 59 61 57 57 58 59 60 61 60 61 64 68 67 67 67 70 72 70 69 69 71 71 68 68 70 71 69 68 67 65 65 63 58 54 52 52 53
51 53 48 49 52 54 60 61 58 58 58 58 59 61 61 61 62 62 64 66 68 67 70 72 71 69 68 70 72 73 72 72 71 70 68 68 66 65 63 64 62 60 57 56
53 53 49 50 52 55 56 61 60 59 60 60 61 63 63 61 61 63 63 65 67 67 71 73 72 71 70 71 72 74 74 72 71 70 70 69 68 64 65 64 63 63 62 62
53 54 52 50 55 57 57 58 60 60 58 61 62 63 63 63 63 62 63 64 66 67 68 69 73 73 72 72 73 74 75 73 71 70 70 70 70 67 68 65 64 52 52 50

GFSCGP_sfc_temp_006.txt.gz
Temp
62 57 52 56 60 61 59 55 54 58 64 59 58 58 64 59 58 56 54 54 53 55 58 59 59 59 59 58 58 57 57 57 56 57 56 56 56 57 58 59 61 62 62 61
57 53 59 63 61 59 55 52 51 57 59 57 57 56 57 58 58 59 55 53 53 54 56 58 58 57 58 58 58 58 58 57 57 56 56 56 57 58 59 60 61 62 62 63
54 58 64 62 59 57 55 51 52 53 55 56 52 50 53 58 56 57 55 56 54 54 54 56 57 56 57 58 57 59 58 57 56 57 57 58 59 59 60 60 60 61 63 63
57 63 62 58 57 58 50 59 58 55 50 43 53 38 50 53 54 55 54 52 54 54 55 56 56 56 56 59 58 58 58 57 58 57 58 57 57 57 59 60 60 61 62 63
58 58 57 56 59 60 56 60 57 54 48 44 46 39 47 49 52 54 53 53 53 54 55 56 56 58 57 59 58 57 59 58 58 59 59 59 58 58 59 59 60 60 62 63
61 64 63 62 64 63 63 56 51 46 43 35 46 43 43 48 54 55 53 55 54 54 55 56 57 57 57 58 58 57 58 58 58 59 60 59 58 58 57 58 58 59 60 62
56 57 62 66 58 58 56 47 37 33 33 34 46 43 47 57 59 59 57 55 55 56 54 54 55 55 56 57 58 57 58 58 58 58 59 59 58 58 59 59 58 59 60 61
48 47 59 63 60 55 51 49 39 32 31 39 46 41 51 58 59 59 59 57 56 55 55 54 55 55 57 58 58 58 58 58 57 58 59 58 59 58 57 59 59 59 60 61
47 49 60 63 64 63 51 47 52 43 40 38 41 48 55 57 56 55 53 54 54 54 53 54 55 55 56 57 57 58 58 57 58 58 57 59 58 59 59 58 59 59 60 62
53 46 57 63 62 59 58 59 46 40 34 32 39 42 44 53 56 54 52 51 53 54 53 54 55 55 56 57 57 58 58 58 58 57 57 59 59 60 59 58 58 60 61 62
54 51 49 57 52 52 51 47 46 46 41 34 30 38 50 54 57 56 54 53 54 55 56 55 55 56 57 56 56 57 57 57 57 57 57 58 59 59 59 58 58 59 60 61
56 50 44 50 53 58 58 52 50 41 40 40 39 42 55 55 57 59 57 55 54 57 57 56 56 55 56 56 56 57 57 58 57 57 57 58 59 59 59 59 59 59 60 61
55 45 39 42 48 51 51 51 49 46 42 39 39 43 56 56 58 59 57 55 56 56 54 54 54 55 56 56 57 57 57 58 59 58 57 57 57 58 58 58 58 59 59 60
62 47 48 46 47 50 47 50 50 49 39 43 42 49 54 57 58 59 54 55 56 57 57 56 55 55 56 57 58 58 58 59 59 59 57 56 56 57 57 58 59 59 59 59
55 46 48 52 56 54 56 53 51 49 51 47 50 49 57 56 58 60 57 55 55 55 57 58 58 57 55 56 58 59 59 59 59 59 58 57 56 56 57 57 57 58 58 58
50 45 48 47 54 54 53 55 54 56 51 49 53 50 58 59 59 61 59 57 58 58 60 60 60 59 57 59 59 59 59 59 59 59 58 58 57 57 56 56 56 56 56 56
47 45 41 39 49 49 45 54 53 54 53 54 50 55 57 55 57 59 59 59 59 60 61 61 61 61 62 61 61 59 59 59 59 59 60 59 57 57 56 56 55 54 54 54
45 44 42 38 43 35 49 60 60 58 57 55 55 57 59 61 63 64 62 59 59 61 63 63 64 63 62 62 59 59 59 60 60 59 60 60 59 57 56 55 54 52 52 53
49 43 38 37 32 44 48 52 53 52 53 58 59 57 59 60 60 62 64 64 64 64 66 66 67 65 63 62 62 60 59 60 60 60 61 61 60 57 55 55 53 51 51 51
46 47 44 33 34 35 46 55 58 59 47 56 61 56 57 58 53 62 65 64 64 62 67 67 66 66 63 63 62 60 59 60 61 62 63 62 61 58 56 55 52 52 52 53
39 39 41 33 33 41 52 56 60 45 49 57 60 60 54 57 66 65 66 65 64 64 65 67 66 65 64 64 63 61 61 61 64 65 64 63 60 58 57 54 53 53 53 53
40 37 37 34 35 37 54 55 52 55 57 59 57 58 57 63 60 63 64 66 65 63 64 66 66 65 65 65 64 63 61 65 66 66 65 63 60 62 59 55 53 54 53 52
43 46 43 45 45 52 58 58 60 58 59 58 57 57 61 61 60 63 62 64 63 64 65 68 66 65 65 65 67 65 64 65 66 65 63 62 61 62 59 56 54 54 53 54
47 49 46 48 51 52 57 58 58 58 60 58 59 60 59 60 60 61 61 63 64 64 65 68 66 65 64 66 67 68 68 68 67 64 63 63 62 61 59 60 58 57 55 54
51 50 46 47 50 52 55 60 58 58 59 60 60 61 61 60 61 62 62 63 64 64 66 68 67 66 66 67 68 69 69 68 66 66 65 64 64 61 61 61 60 60 59 60
48 48 50 49 51 54 56 61 60 58 58 60 61 60 61 62 62 62 62 62 64 64 64 66 67 67 68 68 69 69 70 69 67 66 66 66 66 62 64 62 62 50 50 49

GFSCGP_sfc_temp_009.txt.gz
Temp
73 68 64 69 70 70 69 65 63 66 72 67 67 67 70 73 68 67 66 66 65 66 70 70 70 71 70 70 70 69 69 67 67 69 69 66 66 64 68 63 62 65 68 66
67 64 71 72 70 68 66 63 63 66 68 67 67 66 71 71 70 70 68 66 66 66 68 69 69 70 70 69 69 70 70 68 67 68 68 63 64 65 63 62 63 65 66 65
67 70 70 69 66 64 64 63 62 63 65 67 64 63 67 73 69 68 69 70 68 67 67 68 68 69 71 70 69 70 70 68 68 67 68 64 67 65 64 62 63 62 66 64
70 71 68 66 66 68 61 68 66 63 61 57 65 53 63 70 68 68 69 66 66 67 68 69 69 69 70 71 70 69 70 68 69 68 68 64 65 62 63 63 65 63 66 65
66 65 65 64 67 69 66 68 66 64 61 58 59 54 64 63 66 72 74 67 66 68 68 68 69 71 72 71 71 71 70 69 68 68 68 67 65 67 66 66 66 67 68 65
72 73 72 72 71 70 72 65 61 59 59 51 59 58 61 66 69 73 73 68 66 68 69 70 71 71 71 72 71 70 70 68 68 69 69 67 66 68 62 65 64 64 63 67
65 67 71 74 68 68 68 62 53 49 50 50 56 55 62 71 73 71 71 70 66 67 69 69 68 69 70 70 71 70 70 69 68 69 70 68 67 67 65 60 60 61 63 63
57 54 66 71 70 66 64 64 55 42 47 53 55 53 63 71 69 69 69 69 67 67 69 69 70 70 71 71 71 71 70 70 69 69 70 69 69 71 70 65 61 62 63 63
57 58 69 71 73 72 61 59 67 58 54 53 58 61 67 68 70 67 65 63 63 66 68 69 70 70 71 71 70 70 70 70 70 69 70 69 69 69 68 66 62 65 63 65
62 56 66 70 73 70 67 69 56 58 46 43 53 54 59 67 70 68 63 62 63 66 68 69 71 70 71 72 71 70 71 71 70 70 70 70 69 69 69 69 64 66 66 65
67 64 58 65 63 64 63 61 60 61 58 50 47 55 68 68 70 69 68 66 65 66 69 70 71 72 72 72 72 70 70 70 70 70 70 70 69 69 70 69 69 66 68 69
68 63 57 59 65 72 70 65 65 56 52 56 55 56 70 69 70 70 68 66 68 69 70 72 72 72 71 71 71 70 71 71 72 71 70 70 70 69 69 69 70 71 70 71
64 60 53 55 58 62 63 65 66 63 61 55 53 57 68 68 70 70 66 67 66 68 69 70 71 71 72 72 71 72 72 72 72 72 70 69 68 69 68 69 68 71 72 72
66 61 58 52 57 63 58 60 63 62 57 58 58 63 65 67 70 69 67 68 68 67 68 70 70 72 72 72 72 72 72 73 72 72 70 69 68 68 69 69 70 70 72 72
64 57 61 65 66 65 64 63 62 59 63 58 63 61 69 72 72 74 72 67 66 67 69 70 69 71 72 72 71 73 73 73 72 72 70 69 68 68 69 69 70 69 70 71
58 57 60 59 64 65 62 65 65 63 65 64 67 65 75 74 74 71 69 67 67 68 70 71 71 71 71 72 72 72 72 72 72 72 72 70 69 69 68 67 68 68 69 69
57 56 54 52 60 61 53 63 64 64 67 66 61 69 72 68 70 74 70 69 69 71 71 72 71 71 71 73 72 72 73 73 72 72 72 71 70 69 68 69 68 67 67 67
54 55 56 53 55 43 61 71 70 66 67 68 71 73 71 75 75 78 77 72 72 72 72 72 73 72 72 74 74 74 74 72 73 72 72 72 71 71 69 68 68 66 66 67
57 54 50 48 48 57 59 61 64 62 63 69 69 73 74 74 74 73 77 77 76 73 75 74 75 74 73 73 74 74 73 73 74 74 73 73 72 71 69 68 66 66 65 65
55 57 54 45 45 45 63 66 68 71 58 72 70 72 71 71 68 75 76 78 76 75 76 75 75 74 72 73 74 72 73 73 73 75 74 74 74 71 68 68 66 65 66 67
49 50 47 47 46 53 63 68 70 54 61 72 70 72 70 70 75 79 77 77 79 76 74 76 74 72 71 73 72 72 74 72 76 78 77 74 73 70 70 68 66 66 66 68
51 47 48 49 46 44 65 64 61 69 68 71 70 72 69 74 76 75 77 77 75 74 74 75 72 72 72 73 72 73 72 75 78 78 77 74 71 72 71 67 66 67 66 65
47 57 54 56 56 63 67 69 71 71 74 68 72 72 73 74 74 74 75 76 77 76 75 76 75 73 72 72 74 73 73 76 77 76 74 74 72 72 71 68 66 68 66 69
58 61 56 58 64 64 66 70 72 69 71 70 74 72 72 73 73 74 74 75 77 78 74 75 75 73 71 72 74 75 76 77 76 74 73 74 72 71 70 72 71 71 69 70
60 61 58 58 64 63 66 70 71 70 71 71 72 75 74 74 73 75 75 75 77 77 76 75 74 74 73 73 74 76 77 77 74 74 74 73 74 70 71 72 73 73 72 71
58 58 56 57 66 66 69 70 72 70 70 72 73 72 73 75 75 75 76 76 76 77 78 76 74 74 75 75 75 76 78 76 74 72 74 75 76 73 75 73 72 52 52 48

GFSCGP_sfc_temp_012.txt.gz
Temp
80 74 69 75 78 78 76 73 71 76 79 75 75 75 79 83 84 81 81 79 77 77 81 79 78 79 78 76 75 76 75 74 74 76 74 70 72 67 64 67 66 66 72 72
74 69 79 82 80 76 74 71 71 75 78 74 74 74 79 82 83 83 82 79 78 78 78 77 77 77 77 76 75 76 76 74 75 77 72 73 71 70 72 63 67 69 71 71
71 76 82 79 76 72 72 70 70 69 75 76 73 70 76 81 83 83 82 83 81 78 76 76 76 76 77 76 75 76 75 75 75 75 72 72 71 72 68 63 64 68 70 72
76 83 79 75 73 75 68 76 74 71 68 63 72 59 72 77 79 83 84 81 80 79 78 77 76 76 77 77 78 76 76 75 76 76 75 70 69 70 70 67 64 63 70 68
73 77 74 72 74 78 72 79 74 72 68 67 68 62 70 77 74 79 84 85 80 79 78 77 77 77 79 78 78 78 76 75 76 75 74 76 69 67 69 72 68 65 65 66
78 85 80 78 80 80 80 73 72 71 69 57 67 65 67 74 75 79 83 81 79 79 79 79 79 79 79 79 79 77 76 75 76 76 75 73 71 68 68 69 68 64 66 63
73 76 81 81 75 77 76 68 58 55 56 55 67 63 68 77 80 81 81 82 79 79 79 78 77 78 77 77 77 78 76 75 76 76 75 74 73 71 63 62 69 63 63 65
65 62 74 79 76 71 71 70 61 49 53 59 66 59 71 80 80 81 80 79 79 78 79 78 78 78 79 78 77 78 77 76 76 77 75 75 75 77 68 65 66 63 64 67
66 67 80 79 81 79 71 66 75 64 66 59 65 68 76 79 79 80 78 75 75 77 77 78 79 79 79 78 77 77 77 77 77 77 76 75 76 74 67 68 69 66 65 68
73 63 74 77 80 80 76 77 62 65 51 49 61 62 66 73 76 78 76 75 75 76 78 79 79 78 79 79 78 78 78 78 77 77 77 77 76 76 72 75 67 66 65 64
77 70 68 74 70 70 71 69 69 70 67 56 53 62 76 75 78 78 79 79 76 77 79 79 80 80 80 80 80 77 78 78 77 77 77 76 76 77 76 74 75 73 73 73
76 69 61 66 77 80 77 71 70 61 58 64 63 64 80 80 81 81 81 80 80 80 81 81 81 80 80 79 80 78 78 79 79 79 78 76 76 77 76 76 76 77 74 73
74 66 58 63 67 73 70 73 73 71 68 61 60 63 81 80 79 81 80 81 79 79 81 81 81 80 80 80 80 80 79 79 80 80 78 76 75 76 75 75 76 78 73 77
72 68 63 59 63 69 64 69 73 70 62 63 65 68 75 77 78 81 80 81 80 79 79 81 80 81 81 81 81 81 80 81 80 80 78 75 74 75 75 77 77 78 79 78
72 62 67 70 73 72 70 69 70 67 69 63 68 70 75 79 80 82 83 81 79 78 79 80 79 80 81 80 81 81 81 81 80 79 78 75 75 76 77 76 77 77 78 79
71 62 67 65 72 72 68 71 71 70 71 70 71 70 82 84 86 84 83 80 79 79 81 81 81 81 80 80 80 81 81 81 80 79 78 78 77 77 75 76 76 76 77 78
65 64 62 57 68 68 61 68 71 71 74 73 67 75 82 81 81 83 82 81 81 81 82 82 81 81 80 81 80 80 81 81 80 79 80 78 77 76 75 76 76 76 75 75
64 63 65 61 63 49 67 78 77 73 74 77 77 79 82 83 85 87 89 85 84 84 83 84 83 82 81 83 82 82 83 81 80 80 80 79 78 77 77 76 75 73 74 74
68 66 61 56 57 63 68 72 73 70 70 79 77 80 83 86 86 84 88 89 86 86 86 86 86 84 82 82 83 82 82 81 81 81 81 80 80 78 76 75 74 74 73 73
63 67 63 58 51 49 68 76 80 80 65 81 80 80 81 84 74 81 88 89 88 89 88 86 86 85 82 82 82 81 81 81 81 83 83 82 82 78 76 75 73 74 74 74
56 58 56 56 54 63 74 80 80 61 67 81 82 81 81 80 82 88 91 88 89 87 86 88 86 83 81 82 82 80 81 80 84 86 85 83 81 78 77 75 74 73 73 76
56 54 55 59 55 52 77 76 67 75 79 82 83 84 82 84 85 87 86 87 87 86 85 86 84 83 82 82 81 80 79 83 85 86 85 83 80 80 78 74 73 73 73 72
55 63 60 62 62 72 78 77 79 83 81 82 84 84 84 84 84 86 85 86 87 87 86 87 85 83 81 82 83 80 82 84 85 84 82 81 80 79 78 74 73 75 72 76
62 68 62 63 69 72 76 79 82 83 83 85 85 86 85 83 85 85 84 85 87 87 86 86 85 83 80 81 82 84 85 86 85 82 81 81 78 77 78 79 78 78 76 77
64 66 61 62 68 73 75 78 82 82 83 82 85 86 85 85 85 86 85 84 87 87 87 86 85 84 82 82 82 85 86 86 83 81 81 80 80 76 77 78 80 80 79 77
63 62 61 60 70 71 73 79 82 82 81 81 84 84 85 86 86 86 86 87 87 87 88 85 85 85 85 84 83 84 87 86 83 80 81 81 82 79 81 79 79 56 54 54

GFSCGP_sfc_temp_015.txt.gz
Temp
80 75 70 75 79 80 79 77 75 80 85 81 78 78 83 87 88 87 87 87 86 85 87 85 83 82 81 80 79 78 77 77 76 76 76 77 71 72 72 73 71 71 74 75
76 69 80 82 82 79 78 75 75 80 84 80 77 76 82 85 86 87 87 87 86 85 84 83 81 80 80 79 78 78 78 76 77 75 74 75 74 74 71 74 70 71 72 75
72 77 83 81 79 76 76 74 74 74 80 81 76 73 78 85 87 89 89 89 89 85 82 81 80 79 80 79 78 78 77 76 76 76 76 74 75 71 69 68 71 71 73 75
77 85 81 79 77 80 71 81 78 75 72 66 79 62 74 81 82 85 87 88 87 85 84 82 80 79 79 80 80 79 78 77 78 77 77 72 68 67 68 68 66 67 73 72
75 79 79 76 78 82 76 83 79 76 71 70 71 66 73 81 78 81 85 88 87 86 84 81 81 80 81 81 80 80 79 77 78 76 76 73 67 70 69 69 66 67 69 71
80 89 85 83 85 84 84 79 78 76 72 60 69 68 69 76 78 81 85 87 87 86 84 83 83 82 81 82 81 80 78 77 78 78 76 75 71 69 68 69 66 65 68 69
77 80 86 87 79 83 81 73 61 57 58 57 73 68 71 80 83 83 83 86 86 85 84 82 80 81 80 80 80 80 79 77 78 78 77 76 75 70 68 68 70 65 66 66
68 65 80 86 80 76 76 72 63 50 55 63 73 62 73 83 85 86 86 85 86 83 84 82 82 81 81 80 80 81 79 78 78 78 77 77 75 72 72 70 69 66 69 67
69 70 84 84 85 83 75 68 78 67 69 65 68 73 79 82 83 84 84 82 81 82 82 82 83 82 82 80 79 79 79 79 79 78 77 76 76 74 72 70 69 68 70 71
78 67 81 83 85 84 80 81 66 69 53 52 64 66 70 74 79 82 81 80 80 82 82 83 83 81 82 81 80 80 80 79 79 79 79 78 78 76 74 73 67 66 67 69
80 75 74 81 74 73 75 73 73 72 69 58 56 65 79 78 81 80 83 83 82 82 83 83 84 83 83 82 82 80 80 80 79 79 78 78 78 78 77 76 74 74 71 66
80 75 68 72 82 83 80 75 74 65 60 68 67 67 83 82 84 84 84 85 85 84 85 85 85 83 83 82 82 80 80 81 80 80 79 78 79 78 77 76 75 74 74 71
79 71 63 68 74 78 74 77 77 74 71 65 62 66 85 84 83 85 85 86 85 84 85 85 84 83 83 82 82 82 81 82 82 82 80 77 77 77 76 76 75 78 76 77
75 72 66 64 67 74 68 73 76 72 65 65 68 72 77 80 81 84 85 86 86 84 84 84 84 84 84 83 84 83 82 83 82 82 80 76 76 77 77 77 77 78 79 76
76 66 71 74 78 76 73 73 75 71 71 66 70 72 78 82 83 85 87 87 85 84 84 84 83 84 84 83 83 84 84 83 83 82 80 76 77 78 78 78 79 80 79 80
76 65 71 68 75 76 71 74 75 75 75 74 74 73 85 87 88 87 87 86 85 84 85 85 85 85 84 83 83 83 83 83 82 81 80 79 78 78 78 77 78 78 79 79
70 68 65 61 72 72 66 73 74 75 77 76 69 77 84 83 84 86 87 87 86 86 86 85 85 85 84 84 84 83 83 84 82 81 82 80 79 78 78 78 78 77 76 78
69 66 68 62 66 53 72 82 81 77 78 80 79 82 84 85 88 90 91 89 87 88 87 87 87 85 85 86 85 85 85 84 83 82 82 82 80 79 78 78 77 75 75 75
74 69 63 59 60 67 73 77 77 74 73 81 80 83 85 88 88 87 92 93 90 90 91 90 90 87 86 85 85 85 84 84 84 83 83 83 82 79 78 76 75 75 75 75
71 70 64 62 56 54 70 80 85 83 68 83 83 82 83 86 78 84 91 94 93 93 93 91 91 89 86 85 85 83 84 83 83 85 85 85 84 80 78 77 75 75 76 76
60 62 58 59 57 67 79 84 84 64 69 83 84 84 84 81 86 90 93 93 94 93 93 93 91 88 86 86 85 82 83 83 86 88 87 85 83 80 79 77 76 75 75 76
59 58 59 61 58 57 83 82 71 77 83 85 85 86 85 87 89 91 92 92 92 92 93 92 89 88 87 86 84 82 82 86 88 89 87 85 82 82 80 76 75 75 75 75
59 67 63 67 66 78 84 81 85 85 84 85 86 88 89 88 89 91 90 91 91 92 91 93 90 88 87 86 85 83 84 87 87 87 85 84 82 81 79 75 74 75 74 76
65 71 68 67 74 77 80 83 85 85 85 87 89 89 89 88 90 90 91 90 91 92 91 92 90 87 85 86 86 85 86 88 87 85 84 84 81 79 79 79 78 78 76 77
58 66 64 68 74 78 80 82 84 85 87 86 86 89 90 89 89 90 90 90 91 92 92 91 90 88 86 87 86 87 88 88 86 85 84 83 82 78 79 79 80 80 78 78
62 58 59 63 74 73 75 82 85 83 84 86 85 86 90 91 90 91 91 91 91 91 92 91 90 89 89 88 87 88 90 88 85 83 84 84 84 80 82 80 80 55 57 54

GFSCGP_sfc_temp_021.txt.gz
Temp
71 60 57 62 66 67 66 64 63 69 76 73 69 69 72 76 75 74 73 72 72 70 70 72 71 70 68 67 67 66 66 65 64 62 61 61 61 61 62 62 63 63 64 65
63 57 68 71 70 67 66 63 62 70 76 72 70 68 71 73 74 74 73 72 71 68 70 71 68 67 66 66 66 65 66 65 64 63 63 62 63 62 62 62 62 63 64 65
60 65 73 71 68 66 65 62 63 64 71 74 68 62 68 75 74 77 76 74 71 70 68 68 68 65 65 65 65 66 65 66 65 65 63 62 62 61 61 62 61 62 65 66
63 71 70 67 65 68 60 71 70 68 64 52 66 47 60 67 69 74 76 72 69 69 69 68 67 64 65 66 66 66 66 66 66 66 62 61 59 58 60 62 60 61 63 65
60 65 65 64 66 71 64 73 70 69 63 57 60 50 56 65 65 69 70 72 68 70 69 67 66 67 67 68 65 65 66 66 66 68 64 61 60 61 61 60 60 60 62 64
66 74 71 68 73 74 75 70 68 68 65 51 56 55 54 59 67 67 70 71 71 68 69 68 69 69 67 66 65 65 65 65 66 69 63 62 61 60 59 60 59 60 60 61
64 66 73 75 67 73 71 61 50 43 46 41 61 55 55 66 72 73 69 69 69 70 69 68 67 66 65 64 64 65 64 64 67 66 63 62 61 61 60 59 60 60 59 60
52 51 66 74 69 64 65 63 52 38 39 47 61 51 59 72 74 74 74 71 70 68 69 67 67 65 66 65 65 66 64 64 67 64 62 63 63 61 61 61 61 60 60 61
53 55 72 75 77 73 64 59 66 53 54 49 53 59 67 70 71 71 71 70 67 67 67 67 66 66 65 64 64 65 64 65 65 65 63 63 63 62 61 62 61 61 61 63
59 51 68 73 76 75 70 70 57 49 41 37 50 53 53 63 66 69 67 65 64 65 66 66 67 66 64 65 65 65 65 65 65 65 64 64 63 64 62 62 61 60 61 62
66 55 59 70 65 64 66 64 61 57 52 41 40 47 63 66 67 66 66 67 65 65 66 67 67 66 65 64 65 65 66 65 65 65 65 63 64 64 64 62 63 62 61 62
67 54 52 59 73 76 71 66 59 54 47 51 49 50 70 68 67 70 68 70 67 67 66 66 67 66 66 64 64 65 65 65 66 66 66 64 65 64 63 62 62 62 62 62
67 58 44 52 61 69 67 69 65 59 54 50 47 49 70 71 69 72 69 70 71 68 68 67 68 67 67 64 66 66 66 65 66 66 65 64 64 63 63 62 63 63 63 63
68 59 55 48 55 64 63 66 68 59 49 52 56 57 63 67 69 68 69 71 71 71 71 69 69 66 68 67 69 67 67 67 66 66 64 63 62 64 63 62 64 64 63 63
57 56 60 63 66 66 68 67 67 63 59 57 59 59 64 67 69 70 72 72 72 71 71 70 69 68 67 66 68 69 68 67 66 66 64 63 63 65 65 65 65 65 63 65
50 55 61 58 66 67 64 69 69 68 66 62 65 63 70 75 74 71 72 74 73 73 74 73 72 71 69 70 68 70 68 67 67 64 64 65 65 66 65 66 65 67 65 64
45 46 55 51 63 62 55 67 68 68 68 67 59 63 68 68 73 70 71 75 74 75 75 74 73 73 71 71 70 67 67 68 66 66 67 66 66 66 65 67 66 64 62 61
44 44 49 52 56 43 60 70 75 69 70 68 68 70 71 71 72 74 73 73 76 78 77 76 75 73 71 72 68 68 69 69 68 66 68 68 67 65 66 65 64 62 61 60
52 47 44 47 49 56 63 68 69 66 63 73 68 72 76 75 73 69 78 77 77 78 78 78 77 73 71 73 70 72 69 69 69 68 68 69 68 64 64 63 61 62 61 60
56 54 47 46 41 44 59 70 76 75 59 69 71 69 70 70 62 64 75 76 77 78 78 78 76 76 74 73 72 71 69 70 69 69 71 71 68 66 63 61 61 61 61 61
48 48 45 44 42 53 68 74 74 55 55 69 72 69 69 66 66 72 75 75 79 78 78 78 77 75 75 74 73 71 68 70 71 72 72 71 67 66 63 61 61 61 61 62
44 44 46 46 44 44 72 70 60 62 66 70 69 70 68 71 73 75 77 74 78 77 78 79 77 75 74 75 74 71 69 71 74 72 72 71 66 71 66 62 60 61 60 59
42 46 40 45 49 62 69 65 68 68 69 71 73 70 73 72 73 76 75 74 79 78 79 80 78 73 74 74 75 71 71 73 74 70 68 68 68 68 64 64 60 60 59 59
46 50 44 46 55 57 63 71 73 69 73 73 74 73 73 72 74 75 75 74 75 78 78 80 77 74 73 74 75 75 72 75 75 68 66 68 68 64 66 66 65 63 58 57
46 47 45 47 54 56 61 63 66 70 74 78 77 76 75 74 73 75 74 75 78 80 76 80 77 75 74 74 74 73 76 76 72 68 68 69 68 66 64 65 65 64 61 60
47 44 42 44 50 51 55 60 66 64 63 62 67 76 76 77 75 76 75 75 76 76 77 78 77 76 75 77 75 75 78 76 70 69 69 69 68 64 66 64 60 46 49 51

GFSCGP_sfc_temp_024.txt.gz
Temp
65 56 52 58 61 63 61 57 56 64 71 67 65 67 71 72 70 70 70 70 70 66 65 67 67 66 64 63 63 63 62 61 61 61 60 59 59 60 60 61 62 62 62 63
57 54 63 67 64 61 60 56 57 65 70 65 65 66 72 71 70 71 72 69 66 62 65 66 64 63 63 62 62 62 62 62 62 61 61 61 60 60 60 60 61 62 62 62
56 61 68 65 62 59 59 57 58 58 65 67 63 60 65 71 72 74 73 71 65 65 64 63 64 62 61 61 62 62 62 63 63 63 61 60 59 59 59 60 59 60 63 63
58 67 65 62 60 63 55 66 65 62 58 49 63 47 57 65 68 70 71 65 63 66 66 65 63 59 61 62 62 62 63 63 64 63 61 59 57 57 58 59 58 59 62 63
55 61 61 59 61 67 60 67 64 63 58 51 58 48 54 61 63 67 68 66 61 65 65 63 63 64 63 63 61 62 63 63 63 62 61 59 58 58 58 58 59 59 60 62
61 68 67 64 69 69 70 63 61 60 55 44 56 51 57 57 64 65 65 65 63 62 62 63 65 64 62 62 61 61 62 63 63 64 61 59 58 58 58 58 58 59 59 60
60 61 67 70 62 67 64 54 42 38 41 42 56 52 59 63 66 69 65 62 63 64 63 63 62 61 60 60 60 61 62 62 63 62 61 60 59 59 58 58 59 59 58 59
50 47 62 69 64 59 60 57 45 35 36 43 57 49 58 67 70 70 68 66 65 64 64 63 64 62 63 61 61 62 61 62 61 61 61 61 60 59 59 59 59 58 59 59
50 51 66 69 70 67 58 52 60 48 48 44 49 56 63 64 64 66 64 65 63 62 61 63 61 62 60 60 61 61 61 61 61 61 61 61 60 60 59 58 59 58 59 62
53 46 63 67 70 69 63 64 50 44 39 36 45 50 51 58 61 63 62 61 63 61 62 63 63 62 60 61 61 60 62 61 62 61 61 61 61 61 60 60 59 59 60 61
59 50 53 64 59 58 56 58 55 54 48 40 39 48 57 62 63 62 64 64 62 62 63 63 63 63 61 60 60 60 61 61 61 61 61 61 61 62 61 61 61 60 60 61
62 49 47 53 62 70 66 57 60 51 45 48 46 49 63 61 65 67 65 66 64 65 64 64 63 61 60 60 60 61 61 62 62 62 61 61 61 61 60 61 60 60 60 61
51 53 41 45 52 60 61 63 62 54 49 47 48 49 65 65 67 67 64 64 65 64 62 63 62 63 63 61 61 62 61 62 62 63 61 61 60 61 60 60 60 62 62 61
50 47 51 46 52 58 54 62 62 59 47 47 57 53 59 60 62 62 64 65 65 65 65 65 64 63 64 64 64 64 62 63 62 63 61 60 60 61 61 61 60 61 62 62
43 40 55 58 60 59 60 62 63 60 58 56 55 57 60 62 63 65 66 66 66 65 65 66 65 63 63 62 64 65 64 63 62 63 61 60 61 62 62 62 61 62 61 62
43 36 50 53 61 61 58 61 65 65 61 58 59 56 65 70 70 68 68 68 67 68 68 68 68 66 65 65 66 67 64 63 65 62 61 62 62 63 62 62 62 62 60 61
38 38 38 47 58 58 51 59 60 65 67 61 55 60 64 64 66 67 67 70 70 70 70 69 69 68 68 67 68 66 64 63 64 63 63 63 63 63 63 63 63 60 58 57
39 38 39 41 50 39 57 65 68 65 66 68 64 65 67 68 72 69 72 71 72 72 72 72 71 70 69 69 68 67 65 65 65 64 65 64 64 63 63 61 60 58 56 56
46 40 35 38 45 51 58 62 64 59 58 66 68 67 68 68 67 63 74 76 74 74 75 74 74 72 70 68 68 68 66 66 65 65 65 65 64 62 62 61 58 58 56 55
47 45 40 38 37 41 54 66 71 68 55 65 67 67 67 65 61 63 70 76 75 77 77 75 74 72 70 70 68 67 67 66 65 66 67 67 64 62 61 59 58 58 57 57
40 41 37 38 37 48 61 69 68 54 56 64 69 67 65 65 69 71 70 75 77 77 76 75 72 72 71 71 69 68 67 67 68 68 68 67 63 62 60 59 58 58 58 57
36 38 38 40 39 41 59 65 58 59 61 66 68 65 65 68 68 69 70 73 75 75 74 74 73 71 71 71 71 68 67 70 70 68 69 67 63 67 62 59 58 58 58 56
34 37 37 40 40 51 56 56 58 60 60 65 69 66 72 68 68 70 70 70 74 75 75 76 75 71 70 72 73 68 69 70 71 68 67 66 64 65 62 61 58 57 57 56
40 46 40 42 47 49 55 59 60 62 60 61 68 70 68 71 70 70 70 68 74 75 75 76 74 70 69 72 73 73 69 72 71 66 65 65 64 61 62 64 62 61 57 56
41 44 41 42 47 50 54 56 58 59 63 63 64 67 72 71 69 72 70 70 74 76 76 76 72 71 71 72 72 72 71 73 70 66 65 65 66 63 62 63 63 63 62 61
45 41 38 38 48 46 48 55 59 57 59 62 61 62 64 68 69 71 71 72 75 75 76 75 73 72 72 73 72 71 74 73 71 65 65 65 65 64 64 61 55 46 50 49

GFSCGP_sfc_temp_027.txt.gz
Temp
59 52 50 57 59 60 58 53 51 59 65 62 59 60 64 70 68 68 66 66 68 65 64 63 64 64 62 60 60 60 60 59 60 59 59 58 58 59 59 59 61 61 61 61
54 51 61 64 62 58 56 52 52 60 64 61 59 59 66 68 68 69 70 67 64 60 60 62 61 64 62 60 60 60 61 59 60 59 59 59 58 59 59 59 60 60 61 61
54 60 66 62 59 55 55 52 54 54 60 62 58 56 61 69 67 69 69 69 68 64 59 60 61 61 60 59 59 60 60 60 61 61 59 58 58 58 58 58 58 59 61 62
56 64 62 59 56 58 51 61 60 58 52 46 57 41 53 60 64 66 68 67 65 60 60 61 61 58 60 59 60 60 60 61 62 61 59 57 56 55 56 57 57 59 61 62
52 58 58 56 58 62 57 63 58 58 52 48 52 45 50 57 60 64 66 67 60 59 60 60 61 62 60 60 59 60 60 61 61 60 59 57 56 56 57 57 57 58 59 60
57 65 65 61 65 65 66 57 55 55 49 42 52 47 48 55 60 63 66 64 59 58 59 59 60 61 59 59 59 59 60 60 60 60 59 58 57 56 56 57 57 57 58 58
53 56 62 67 58 60 60 49 38 34 36 37 53 47 54 60 63 66 66 61 58 59 58 60 61 58 58 58 58 59 59 59 60 60 59 59 58 57 57 57 57 58 58 58
45 42 57 65 61 56 55 53 38 31 33 41 52 44 52 64 68 68 66 60 60 58 59 61 61 59 60 59 58 59 59 59 59 60 59 59 58 57 57 57 57 57 58 59
46 48 62 66 65 64 55 49 57 45 44 40 45 52 60 61 62 61 59 59 57 58 58 60 59 59 59 58 58 59 59 59 59 60 59 59 59 58 57 57 57 58 58 60
50 43 59 64 66 64 56 60 46 43 34 34 43 46 50 56 59 59 57 57 57 56 57 59 60 58 60 59 58 58 59 59 59 60 59 60 60 59 58 58 58 58 59 59
50 46 49 59 55 54 52 52 48 51 44 36 35 43 55 60 59 59 58 59 57 57 59 60 61 59 60 58 57 58 58 59 59 59 59 60 60 60 59 59 59 59 59 60
46 46 42 49 59 66 62 56 52 48 40 45 42 47 60 62 63 64 64 60 58 59 60 61 60 58 57 57 57 57 58 59 59 60 60 60 60 59 59 59 59 60 59 60
45 41 40 42 49 54 56 58 60 50 45 42 46 49 61 59 60 64 60 60 60 58 57 58 57 59 59 58 58 58 59 60 60 60 60 59 59 59 58 58 59 61 60 60
47 38 44 42 47 53 51 57 55 56 46 48 51 50 56 57 59 59 59 60 60 60 61 60 59 60 61 61 60 60 59 60 60 60 59 59 59 59 59 59 59 60 61 60
40 32 41 50 57 56 55 56 59 54 55 51 55 53 58 59 61 61 61 60 60 60 61 61 60 60 59 58 59 61 60 60 60 60 59 59 59 60 60 60 60 60 61 62
39 32 39 44 55 56 54 56 59 60 59 58 55 54 62 65 63 63 63 63 62 62 64 64 64 62 61 62 62 62 61 60 60 59 59 60 60 61 60 60 60 58 59 61
37 35 36 34 52 52 46 55 56 58 62 62 54 60 60 58 64 63 63 65 65 65 66 65 65 64 64 64 65 61 61 60 61 60 60 61 61 61 61 61 60 57 57 57
40 35 35 31 43 35 54 62 64 58 61 62 60 62 64 66 68 69 69 67 67 68 68 68 68 66 65 66 65 62 61 62 62 60 61 61 61 61 60 59 58 56 54 54
44 38 32 30 35 47 54 57 59 55 56 63 66 63 65 70 63 59 70 72 71 70 71 70 70 68 66 65 65 63 61 62 63 62 61 62 62 60 59 58 56 55 54 53
47 42 36 33 30 35 47 57 64 62 54 62 67 61 63 64 61 62 66 72 71 72 73 71 70 68 66 65 65 63 61 62 62 63 64 63 61 60 59 57 56 55 54 54
36 35 31 34 32 42 50 53 59 51 48 54 65 64 59 67 71 71 70 72 73 73 71 69 69 68 67 66 65 64 62 62 65 66 65 62 60 59 59 57 57 56 55 54
32 33 33 35 33 35 51 53 46 48 53 56 60 65 62 71 68 65 69 72 72 70 68 70 68 68 68 67 67 65 63 66 66 66 65 62 59 64 60 58 57 56 55 53
32 37 35 38 39 46 50 48 53 54 52 55 55 60 69 67 66 65 67 70 72 72 71 72 70 66 67 67 69 66 67 66 66 64 63 61 60 60 58 57 56 55 54 54
39 44 39 40 48 47 50 53 55 55 55 57 60 59 63 66 67 67 67 69 71 73 72 72 70 65 65 68 70 71 67 68 66 64 62 60 60 57 58 59 59 58 55 54
38 42 40 40 47 48 51 52 53 55 58 59 59 61 61 66 66 69 68 69 71 72 73 72 71 67 67 69 70 69 68 69 66 65 63 60 62 60 59 60 59 60 59 59
42 40 37 37 46 46 46 52 54 54 55 58 57 60 61 60 64 65 68 71 72 71 73 72 71 69 69 70 70 68 70 70 68 64 62 61 62 60 60 59 53 45 49 47

GFSCGP_sfc_temp_030.txt.gz
Temp
55 50 47 54 58 58 59 53 50 61 62 57 55 55 62 65 63 63 64 64 64 63 64 63 60 62 62 62 60 59 59 59 59 59 59 59 59 59 60 60 62 62 62 62
50 48 57 60 60 57 55 53 52 59 60 56 55 55 62 64 64 66 68 67 65 61 60 58 58 61 62 61 60 58 59 58 60 59 59 60 59 59 60 60 61 61 62 62
51 56 62 59 57 54 53 52 54 54 56 57 55 52 58 64 64 66 66 66 65 64 59 56 58 58 60 60 59 59 59 60 60 60 59 58 58 58 58 59 60 61 62 62
52 62 60 57 55 57 49 59 58 55 49 41 53 38 53 59 60 63 66 64 64 60 57 57 56 56 59 60 59 59 60 60 61 60 59 58 57 56 57 58 59 60 62 63
48 55 55 54 56 59 54 62 58 54 47 42 47 41 49 54 57 61 65 66 63 57 55 56 58 59 59 59 58 59 60 60 60 60 60 58 57 57 58 58 59 60 60 62
55 63 62 60 63 63 64 57 52 48 44 35 47 45 44 51 57 62 64 64 59 55 55 57 59 59 58 58 58 59 59 59 60 60 60 58 58 58 57 58 58 58 59 60
50 53 57 62 54 58 57 47 34 32 32 33 49 44 51 56 60 64 65 63 56 56 55 57 59 58 57 57 58 58 59 59 59 60 59 59 59 58 58 58 58 60 60 60
43 39 55 60 56 50 53 49 38 31 31 39 49 41 48 61 68 66 64 62 56 54 55 59 59 58 59 58 58 59 58 59 59 59 59 59 60 58 58 58 59 59 59 60
42 44 59 63 64 62 50 46 51 42 43 37 42 48 57 61 61 62 61 57 54 53 54 57 57 58 58 58 58 58 58 59 59 60 59 59 60 60 59 59 59 59 60 61
46 40 57 60 64 63 57 58 43 41 33 31 39 43 48 56 62 60 56 55 53 53 55 57 58 57 58 59 58 58 59 59 60 60 60 61 61 61 60 60 60 60 60 61
45 43 46 56 53 51 48 48 44 47 39 33 33 41 53 59 60 60 58 57 53 54 56 58 58 58 58 57 57 58 58 59 59 60 60 61 61 61 60 60 60 60 60 61
43 39 40 48 55 63 60 50 47 45 36 41 40 42 58 59 61 60 60 58 55 55 57 58 58 56 56 56 56 57 58 59 60 60 61 61 61 60 59 60 61 61 61 61
44 36 34 40 47 52 54 54 54 45 42 44 38 42 59 58 60 60 58 57 56 55 55 55 56 57 57 56 57 57 58 59 60 60 60 60 60 60 59 60 61 62 61 61
48 35 34 36 43 47 49 54 55 47 38 42 49 49 57 59 60 57 57 57 55 57 58 57 56 58 58 58 59 58 58 60 60 60 60 60 60 60 60 60 61 62 62 62
42 30 37 40 46 48 49 53 55 51 52 45 49 53 56 60 60 58 57 56 56 56 57 59 58 58 57 56 58 59 59 59 59 60 60 60 60 61 61 61 61 61 62 62
40 30 36 36 48 49 47 51 55 55 55 53 53 51 60 63 60 58 60 59 59 59 60 61 60 60 58 59 60 60 60 59 60 59 60 60 60 61 61 61 60 60 61 62
36 33 31 30 41 43 40 50 52 53 58 56 50 59 57 57 60 59 58 62 62 62 62 62 62 61 61 61 62 60 60 59 60 60 61 61 61 62 61 62 60 59 58 60
38 34 33 30 36 31 48 58 59 54 56 60 59 59 63 63 63 64 65 65 63 64 64 64 64 63 62 62 62 61 60 60 60 60 61 62 62 62 61 61 59 57 57 58
44 35 31 28 30 41 49 48 49 49 52 57 57 63 62 65 61 60 65 68 67 66 67 66 67 64 62 62 62 62 59 60 61 61 61 62 62 60 60 60 58 57 56 56
44 42 35 31 29 32 39 48 53 51 45 49 51 51 58 60 57 62 64 66 66 66 67 66 66 64 63 62 62 61 61 60 60 62 63 63 62 61 60 59 57 57 57 57
33 33 30 31 28 37 46 49 53 44 40 48 50 51 51 59 65 73 66 67 70 68 66 65 66 64 64 63 63 61 61 61 64 64 64 62 61 61 60 58 58 57 56 56
33 32 30 33 29 31 49 48 39 44 48 50 51 52 52 57 68 66 66 68 67 66 65 67 66 65 64 64 65 62 60 64 64 64 64 62 59 63 60 59 58 57 56 55
32 37 34 36 38 45 48 48 49 49 48 51 52 54 54 56 59 64 66 65 68 68 69 69 67 64 63 64 67 63 63 63 63 62 61 60 60 60 60 59 57 57 56 56
40 43 37 39 44 46 47 53 51 53 51 53 56 56 56 55 60 64 64 66 67 69 68 69 66 63 62 64 67 67 64 66 65 62 60 59 60 58 58 60 60 59 57 56
37 40 41 40 43 46 51 50 51 52 54 55 56 57 58 56 60 64 64 65 68 69 69 69 67 65 65 65 67 66 66 66 63 62 61 60 61 59 58 60 60 61 60 59
41 39 37 36 43 42 45 52 53 51 52 53 54 55 58 58 56 64 65 67 69 69 69 68 67 66 66 67 67 66 68 66 64 61 61 60 60 60 60 59 56 44 48 47

GFSCGP_sfc_temp_033.txt.gz
Temp
63 58 55 59 62 65 65 61 61 67 71 67 67 67 70 75 75 74 76 76 76 77 83 78 74 72 71 71 70 70 70 70 72 71 71 71 72 73 72 73 72 72 72 71
56 54 63 67 66 61 61 60 61 66 70 66 66 65 70 72 74 76 76 76 77 79 79 71 68 69 70 69 70 70 71 70 71 72 72 73 73 73 72 73 71 71 71 70
56 61 65 62 61 58 59 58 60 60 64 66 63 62 68 74 75 77 78 77 78 77 76 69 67 68 69 69 70 70 71 70 72 71 71 70 70 70 71 71 72 72 70 71
59 67 63 60 58 60 54 64 63 60 57 54 64 51 63 69 70 74 76 79 79 76 70 69 67 67 68 70 72 72 71 71 72 71 70 69 70 69 71 71 71 70 70 71
54 58 59 57 59 63 59 67 61 59 57 56 59 53 62 65 65 71 77 79 78 72 70 68 68 68 71 71 71 72 71 71 71 71 71 71 68 70 71 71 68 68 70 70
61 67 64 64 66 65 67 63 60 59 58 47 56 55 58 65 67 72 78 80 72 69 68 68 69 70 70 73 72 71 70 70 71 71 70 69 68 68 70 69 69 68 69 69
55 58 64 67 62 65 63 58 47 44 45 46 59 54 56 68 71 73 76 79 73 69 68 67 67 70 70 70 71 72 71 70 71 71 70 70 69 68 67 68 70 63 64 69
47 45 58 65 62 59 59 58 52 41 44 49 57 50 58 71 75 77 78 78 72 68 68 68 70 71 71 71 71 72 71 70 71 71 70 70 69 72 71 68 68 67 66 69
48 50 63 64 67 65 58 54 65 55 54 52 55 57 66 70 71 72 75 74 70 67 67 68 70 71 71 71 71 71 71 71 71 71 70 70 70 69 69 67 68 69 69 70
50 46 60 63 67 67 62 65 50 55 44 41 50 54 59 66 68 73 73 71 68 67 67 68 70 70 71 72 72 72 72 72 72 72 71 72 70 70 68 69 69 69 69 70
51 50 54 62 58 58 58 56 59 59 56 48 45 54 68 70 71 73 76 73 67 67 68 69 71 72 72 73 73 71 71 72 72 72 71 71 71 70 69 69 70 69 70 70
47 45 48 54 65 68 64 60 59 52 47 54 55 56 68 70 71 73 74 70 69 69 70 71 72 72 72 71 72 71 71 73 73 72 72 71 71 70 69 69 70 70 70 70
40 45 43 49 56 62 59 62 62 61 58 52 50 55 70 70 71 73 72 69 67 68 69 71 72 71 72 72 72 73 72 73 74 73 73 71 70 70 69 69 69 70 70 70
42 40 43 46 49 56 54 58 61 59 54 54 55 59 70 71 72 73 71 70 68 69 68 70 70 72 72 72 73 73 73 74 73 73 72 71 71 70 70 69 70 70 71 70
40 35 42 46 48 49 51 58 59 56 58 54 56 58 68 72 73 74 72 70 68 69 69 70 70 72 72 72 73 74 74 73 73 73 72 71 71 71 71 70 70 70 69 69
41 35 41 43 52 52 50 55 60 60 61 60 60 60 72 75 74 71 71 69 70 70 71 71 72 72 71 72 73 73 73 73 73 72 72 72 72 71 71 70 70 70 70 66
41 39 38 42 48 49 47 55 57 60 63 63 58 64 72 71 73 75 73 71 72 72 72 72 72 72 72 73 73 72 73 74 72 73 73 72 72 72 71 70 69 69 69 67
41 40 41 39 44 37 56 61 64 60 63 66 67 69 73 74 77 81 80 77 74 75 74 74 73 73 73 75 75 75 75 73 73 73 73 73 73 72 72 70 68 67 68 68
45 41 39 37 41 49 55 51 50 58 53 55 57 67 72 73 73 76 80 80 77 77 76 76 76 74 73 73 75 74 73 74 74 73 74 74 74 73 72 70 68 68 67 67
46 45 40 39 36 40 45 53 57 56 50 54 54 55 57 61 65 75 84 79 79 79 79 76 76 75 73 73 74 73 73 73 73 75 75 75 75 73 72 71 68 68 68 68
34 35 34 37 37 44 50 54 58 47 47 54 55 56 56 56 69 72 66 78 81 79 78 77 75 74 72 73 73 73 74 72 76 77 77 75 74 73 73 70 69 68 68 68
34 34 35 37 36 37 53 55 48 50 54 55 56 57 56 59 61 64 67 72 78 77 77 76 74 74 73 73 73 74 72 76 77 77 76 75 73 74 72 70 69 69 68 67
35 40 37 39 44 46 52 51 56 57 55 56 56 59 59 59 62 65 67 72 77 77 77 78 77 73 72 73 75 74 74 76 76 75 74 73 73 73 72 70 68 69 68 69
40 44 41 42 44 45 49 54 56 57 57 59 60 60 61 60 63 65 68 71 77 79 77 78 77 74 71 73 75 77 77 77 76 73 72 73 71 71 72 73 72 72 70 70
37 40 40 41 44 45 51 52 53 54 59 60 61 62 61 62 63 65 68 73 78 79 78 78 77 75 74 74 75 77 77 77 74 74 72 71 73 70 71 72 73 73 72 71
41 39 37 40 46 42 44 52 54 54 56 59 59 60 62 64 64 66 68 76 78 79 79 77 77 76 77 75 76 77 77 76 74 72 73 73 74 72 73 72 69 44 50 50

GFSCGP_sfc_temp_036.txt.gz
Temp
68 64 61 67 69 71 72 71 69 74 80 76 75 76 81 85 84 84 85 86 87 88 92 94 86 84 82 81 80 79 78 77 79 81 81 81 81 82 82 82 80 79 77 77
65 59 70 73 73 70 69 67 68 75 79 77 74 73 80 83 83 84 85 86 86 89 91 92 82 80 79 78 78 77 77 76 79 82 81 83 82 84 83 83 79 78 78 77
62 66 73 71 69 67 67 65 66 67 75 77 72 68 72 81 84 86 86 88 90 89 88 88 79 79 79 77 77 77 77 77 79 80 80 78 80 79 79 79 79 78 77 77
64 73 70 68 67 70 62 72 69 67 65 59 73 59 70 77 78 82 84 86 89 90 86 83 80 77 77 78 79 79 78 77 78 78 79 77 79 78 82 79 82 79 77 77
60 65 67 66 67 72 67 72 70 68 64 64 65 61 67 75 72 78 83 86 89 87 85 81 80 78 80 79 79 79 78 78 77 77 79 78 76 80 80 80 75 75 74 76
64 74 71 71 74 73 74 68 69 68 65 54 62 61 63 70 74 80 85 87 89 84 81 81 80 79 79 81 80 79 77 77 77 77 77 75 74 75 77 77 74 71 72 72
60 63 70 74 69 72 70 63 54 50 52 50 66 62 62 75 80 82 83 86 86 83 81 78 78 79 78 79 79 79 77 76 77 77 77 76 75 74 73 74 73 72 73 71
50 49 63 71 68 65 65 64 57 46 50 56 66 57 66 78 82 84 86 88 86 83 81 79 80 79 80 79 79 79 78 77 78 78 77 76 76 80 78 76 77 72 75 71
52 54 69 70 73 74 65 61 72 63 65 59 65 67 71 77 79 83 84 85 83 81 79 79 80 80 80 79 78 78 78 78 78 78 77 76 76 76 76 74 74 73 74 74
54 47 66 68 73 74 70 72 59 63 49 48 60 61 61 73 77 81 82 83 84 80 80 80 80 79 81 80 79 79 79 78 78 78 78 78 77 77 77 76 74 75 74 75
55 51 58 66 63 64 66 64 66 66 64 53 52 58 72 76 80 80 84 85 81 79 80 80 81 81 82 81 81 79 79 79 78 78 78 77 79 77 76 75 75 75 74 75
51 51 49 59 70 74 71 67 65 59 54 63 62 61 74 79 79 83 86 86 82 82 82 82 82 81 81 81 81 79 79 80 79 79 79 77 78 77 74 74 75 76 74 76
44 49 45 53 64 68 65 68 68 68 67 58 57 60 78 80 80 81 82 81 80 81 81 82 82 81 81 81 81 80 80 81 81 80 79 77 76 76 74 74 74 76 75 76
47 39 49 51 57 64 60 65 68 65 59 62 62 63 72 78 80 80 80 79 80 80 80 82 81 82 82 81 82 81 81 82 81 80 80 77 76 75 75 75 74 75 76 74
46 42 51 54 56 56 60 64 66 63 65 61 66 65 70 80 81 79 81 80 79 81 81 80 81 81 82 81 81 82 82 82 81 80 79 77 77 77 77 77 76 73 75 73
48 40 48 50 57 57 55 61 66 66 67 66 67 66 75 80 84 82 80 81 80 81 82 81 82 82 81 81 81 81 81 81 81 79 79 79 78 78 76 76 76 74 72 72
42 44 45 46 57 57 51 59 62 66 69 68 62 70 77 77 78 79 82 81 81 83 83 82 82 82 81 82 81 80 81 82 80 79 80 79 78 78 77 77 76 74 71 70
41 44 47 47 54 40 60 68 70 66 69 71 70 74 78 79 81 85 89 85 83 85 85 84 84 83 82 84 83 83 83 81 81 80 80 80 79 79 78 77 75 73 71 70
50 44 39 45 48 57 59 59 61 64 58 62 65 71 75 79 79 78 86 89 88 88 88 87 86 84 83 83 84 83 82 82 82 81 80 81 81 79 78 76 74 74 72 68
52 46 38 42 42 44 50 59 64 64 55 61 62 63 65 70 69 78 78 80 88 90 90 88 87 85 83 83 83 82 82 81 81 82 82 82 82 80 78 76 74 75 75 70
39 40 36 41 43 48 55 61 64 50 52 60 62 63 64 64 73 72 75 77 81 88 89 89 86 84 82 83 82 81 82 81 83 85 84 83 81 79 79 76 75 74 75 74
39 37 38 39 38 40 57 60 54 54 60 62 63 64 64 66 69 72 75 77 80 84 88 88 85 84 83 84 82 81 80 84 85 85 84 82 80 81 80 75 75 75 74 72
36 40 41 45 39 47 55 56 61 62 61 63 63 66 66 67 69 72 74 77 80 84 87 89 87 84 83 83 83 82 82 85 85 84 82 81 80 80 79 76 74 76 74 75
45 47 44 48 44 45 49 59 61 62 62 65 67 67 68 67 70 72 75 78 81 84 86 88 86 85 82 83 84 85 85 86 85 82 80 80 79 78 79 80 78 79 77 78
38 39 38 45 51 49 51 56 59 60 62 64 67 68 68 69 70 73 75 77 81 85 87 87 86 86 84 84 85 87 87 86 83 81 81 79 80 77 78 79 80 80 79 76
45 39 37 38 51 47 48 55 59 57 59 61 65 66 70 70 71 73 75 78 80 86 89 86 86 86 87 86 86 87 88 86 82 79 81 81 82 79 81 79 77 45 50 54

GFSCGP_sfc_temp_042.txt.gz
Temp
69 61 58 63 68 71 70 69 67 74 80 77 75 76 81 86 87 86 87 86 87 88 93 92 92 92 88 87 84 81 80 79 78 78 77 77 76 76 77 78 80 80 78 77
62 57 66 70 71 69 69 67 67 74 80 78 76 75 81 84 85 87 86 86 87 88 90 92 91 85 83 81 81 79 79 78 77 77 76 77 77 78 78 78 78 78 78 75
57 63 70 68 66 66 67 65 66 67 75 78 74 71 75 83 86 87 88 89 89 87 86 88 90 82 81 79 78 78 78 76 77 78 76 78 78 77 76 76 75 75 76 75
61 68 66 66 64 67 62 73 72 70 67 61 74 58 70 76 78 83 85 87 87 88 89 90 86 80 79 79 79 78 77 76 77 78 77 76 74 72 75 76 73 74 76 74
56 61 62 61 66 70 65 74 72 71 67 66 66 61 67 76 74 79 83 87 87 89 90 90 83 81 82 80 78 77 76 75 77 77 77 75 74 76 77 76 71 73 72 74
60 69 67 67 70 71 75 70 70 70 68 56 64 62 63 69 74 78 84 87 88 90 91 88 84 82 80 80 78 76 75 75 76 77 77 76 75 75 73 74 71 72 69 71
57 59 66 70 64 70 69 64 53 51 53 52 67 63 65 75 80 82 83 85 88 90 90 84 81 80 78 78 77 76 75 74 75 76 76 76 76 75 75 74 72 71 68 68
41 44 60 67 64 62 64 63 56 44 48 55 66 58 66 79 84 86 87 87 89 89 85 83 81 79 79 78 76 76 76 74 76 76 76 76 76 74 74 74 71 70 70 70
40 45 63 67 69 68 63 59 69 60 63 58 65 70 75 80 82 84 85 85 86 83 81 81 81 79 79 77 76 76 76 76 76 76 75 75 75 76 74 73 71 73 72 72
46 38 56 62 69 69 66 72 58 62 47 47 60 63 67 74 77 81 81 83 85 83 83 82 81 79 79 78 78 78 78 76 77 76 76 76 74 73 75 74 72 73 72 73
50 43 47 58 59 60 63 62 65 65 63 53 51 60 77 76 80 80 82 84 85 82 83 82 82 81 81 80 80 78 78 77 76 76 76 74 74 74 73 73 74 72 72 73
52 39 40 49 63 70 69 64 64 58 54 62 61 63 81 81 83 83 84 86 86 84 84 84 83 81 80 79 79 78 77 78 78 78 76 73 71 74 72 72 72 72 71 72
50 43 38 45 54 61 58 66 68 66 66 59 57 62 81 82 82 85 84 87 83 83 83 83 82 81 80 80 79 79 79 79 79 79 76 73 72 73 71 73 73 74 73 71
50 43 41 36 43 42 45 59 67 65 59 61 64 67 74 78 80 82 84 82 83 83 82 82 81 81 81 81 81 80 80 81 80 80 76 72 69 72 72 73 74 73 74 72
45 35 42 45 47 43 41 48 63 64 67 61 66 69 74 79 81 82 83 83 81 82 82 81 80 81 81 80 80 81 81 81 80 80 75 72 70 72 73 72 73 73 72 73
45 35 42 40 47 44 40 49 57 69 69 70 70 70 73 77 78 81 82 82 81 81 83 83 82 82 81 81 81 80 81 80 80 79 76 76 73 73 70 72 72 71 71 71
42 38 37 38 47 40 38 51 57 66 73 72 66 72 75 70 79 81 81 82 82 83 84 82 83 82 81 82 81 79 80 81 79 80 77 77 73 73 73 72 72 70 69 69
46 41 38 37 39 28 48 69 70 71 73 76 73 76 79 77 82 84 83 83 84 85 84 84 84 82 82 83 83 81 83 81 80 80 81 81 77 76 73 71 70 69 67 67
54 44 36 36 36 40 48 56 58 64 59 66 72 77 79 81 78 73 78 80 81 86 87 85 86 84 83 82 82 82 81 81 81 81 81 81 81 77 75 71 70 68 65 65
56 51 40 40 33 32 42 55 64 71 52 66 69 69 71 77 68 68 75 79 80 81 87 86 87 85 83 82 81 80 80 80 80 82 82 83 81 78 74 72 70 69 65 64
46 43 38 36 36 38 45 57 66 50 45 65 68 67 66 64 68 72 77 78 81 81 85 88 86 84 82 82 81 80 80 79 83 85 84 83 79 76 73 72 72 68 66 66
38 37 41 44 39 33 49 54 46 48 59 64 67 67 66 69 73 74 77 77 80 78 86 90 86 83 83 83 81 80 78 82 85 85 84 81 76 79 76 72 72 69 68 65
35 37 35 38 38 45 49 48 52 58 60 63 65 68 69 70 72 74 76 78 78 82 85 88 88 83 83 83 82 80 80 84 85 83 80 79 79 77 75 72 71 70 69 67
44 50 42 44 44 47 48 53 57 61 62 65 67 66 70 69 72 74 76 78 81 84 84 87 88 84 81 83 83 83 84 86 85 80 78 77 77 74 74 75 74 73 71 70
42 45 44 43 48 52 54 57 58 62 64 65 67 67 68 71 72 74 75 78 81 84 87 88 89 85 83 84 84 85 85 86 81 79 78 76 78 75 75 75 73 76 72 70
47 43 40 39 52 51 52 58 61 61 62 65 65 65 69 71 72 74 74 77 80 82 86 87 88 86 86 86 85 86 87 85 80 77 78 78 78 76 77 74 70 44 51 48

GFSCGP_sfc_temp_045.txt.gz
Temp
58 51 48 53 57 59 61 59 58 64 71 68 67 68 72 77 75 77 79 76 74 76 80 80 81 77 75 73 73 71 70 70 73 71 68 67 66 67 68 69 72 71 70 70
52 47 57 62 61 59 58 56 57 65 71 68 67 66 73 76 77 79 79 74 75 75 77 81 78 75 73 70 69 69 69 69 68 69 68 68 67 67 69 69 70 70 70 68
49 53 63 61 59 57 57 55 57 57 65 68 64 60 66 73 76 78 78 77 74 75 74 78 74 70 69 68 68 69 68 68 69 69 68 67 67 67 67 67 66 68 70 69
51 60 59 58 56 60 52 64 63 62 58 50 62 48 61 68 71 74 76 73 74 75 77 76 71 68 68 68 69 68 68 68 69 69 67 66 64 63 65 67 65 66 69 68
49 53 54 54 57 63 56 65 62 61 57 55 57 48 60 65 64 66 71 77 77 79 75 75 72 71 69 69 67 67 67 68 68 68 68 66 65 64 65 64 65 65 65 67
54 62 59 57 62 64 66 61 60 59 55 44 54 53 56 61 65 66 71 74 77 75 75 72 73 72 70 69 67 66 66 66 68 68 67 67 65 64 63 63 62 62 63 64
52 53 60 63 54 60 58 52 40 38 41 41 57 52 58 62 69 73 72 74 75 75 70 71 70 69 69 67 67 66 66 65 67 67 67 67 66 65 64 64 62 63 62 62
39 37 52 61 55 50 52 51 42 32 37 43 57 50 57 69 75 77 79 77 75 73 72 71 70 70 69 68 68 67 65 65 66 67 66 66 66 64 63 64 63 63 63 63
36 39 56 56 58 59 52 46 57 47 50 44 49 59 66 71 72 75 75 73 67 69 71 70 70 70 69 68 67 66 66 66 66 66 65 65 66 66 64 64 64 63 64 65
44 33 50 55 59 59 53 59 45 48 36 35 47 52 54 64 68 72 69 68 67 70 70 70 70 69 70 70 67 67 67 66 66 66 66 67 66 66 65 64 64 65 65 66
45 38 41 49 47 46 50 49 50 48 49 40 39 47 64 66 68 67 68 71 70 70 71 71 70 71 71 70 70 67 67 67 65 67 66 66 65 66 65 64 65 65 65 66
45 37 32 41 52 56 53 51 52 43 42 50 46 49 67 69 66 71 69 71 72 73 72 72 71 71 71 69 69 67 66 66 67 67 66 65 67 65 64 64 65 65 64 65
43 35 28 35 45 52 47 52 56 52 52 47 45 50 71 71 70 72 70 70 74 73 72 72 71 71 71 70 70 67 67 67 68 68 67 69 66 64 64 64 64 65 65 65
45 36 35 27 35 42 37 42 46 42 45 49 52 55 63 68 69 70 66 74 74 74 73 73 71 71 72 72 71 69 68 69 68 69 66 68 68 64 64 64 65 65 66 65
43 32 38 40 43 45 42 40 44 40 42 44 55 59 65 64 66 66 73 74 73 73 73 73 72 72 71 71 70 71 69 70 68 68 70 68 68 65 65 65 65 65 65 65
43 32 38 35 43 46 40 43 45 44 46 48 56 58 67 69 68 72 73 74 73 73 73 74 74 74 72 72 71 72 69 70 68 68 70 67 70 69 64 64 64 64 64 64
40 35 34 31 45 40 33 41 45 46 51 52 52 61 65 64 66 67 72 73 74 75 75 75 75 75 74 73 73 68 69 70 68 69 70 69 70 69 66 66 64 63 62 62
41 38 36 33 37 27 44 50 52 50 57 59 65 65 64 65 66 66 66 66 74 76 77 76 76 73 74 72 72 68 71 70 70 70 72 71 71 67 68 64 63 62 62 61
47 41 34 32 32 39 45 46 44 44 50 57 65 69 67 69 68 65 66 68 69 72 78 77 77 75 75 73 73 71 71 70 71 71 71 71 73 67 65 62 61 61 61 60
50 46 35 34 30 30 37 46 51 52 40 54 60 61 60 68 53 57 65 67 69 72 77 78 77 76 74 72 73 71 69 69 69 71 73 74 75 68 64 62 61 61 60 60
39 38 33 34 33 34 42 46 54 40 41 50 60 61 57 56 58 63 66 67 70 68 72 79 78 76 75 74 72 69 68 68 71 73 74 73 72 67 64 62 62 61 60 61
33 33 34 34 34 30 46 46 42 44 48 56 57 59 59 61 63 65 68 68 71 69 72 76 77 75 75 75 74 68 68 71 72 73 72 70 68 71 67 63 61 62 60 62
33 37 34 33 34 44 45 45 49 50 52 57 59 60 62 60 62 66 68 69 70 70 69 72 76 74 74 75 75 68 70 72 72 71 70 69 69 68 65 63 62 61 59 59
43 45 40 40 43 45 47 49 51 54 54 61 61 61 62 60 63 65 69 69 71 71 70 71 73 70 73 75 75 72 72 74 71 69 70 69 68 66 64 65 64 63 60 59
42 43 38 42 45 49 51 53 53 56 58 60 62 61 61 61 62 65 68 69 70 73 74 71 74 70 73 75 75 73 76 74 69 70 70 68 68 68 64 63 60 65 65 64
43 39 37 36 44 44 46 52 56 57 56 60 59 60 62 62 62 66 67 69 70 71 72 73 72 76 75 77 77 75 78 72 70 70 70 69 68 67 67 60 55 44 45 50

GFSCGP_sfc_temp_048.txt.gz
Temp
54 46 45 51 55 56 57 55 52 57 66 64 62 62 68 72 70 71 75 74 74 77 79 79 81 75 75 71 69 68 67 67 70 70 66 65 65 64 65 66 68 68 66 68
48 43 54 58 57 54 53 50 49 56 64 62 62 61 68 71 72 73 74 73 72 70 73 76 73 71 70 70 67 66 67 67 67 66 64 65 65 65 67 67 66 67 67 67
44 49 59 56 53 52 51 50 50 51 59 62 59 54 58 67 68 72 71 74 73 71 72 73 73 69 66 67 65 66 67 67 67 67 66 64 65 64 64 63 63 65 67 66
46 54 54 53 50 54 46 57 56 55 52 45 60 44 57 64 67 70 71 69 69 72 72 72 70 64 65 65 66 66 66 67 68 66 66 64 62 61 62 64 63 63 67 66
45 48 48 49 52 57 50 59 57 56 50 50 52 43 55 58 61 65 68 69 73 76 71 71 68 67 65 65 65 66 66 66 65 66 66 63 62 62 61 62 62 63 64 66
51 57 54 52 57 58 59 54 53 53 47 39 48 46 51 56 61 64 65 69 74 76 72 67 66 66 64 64 65 66 65 64 65 65 65 64 62 61 61 60 61 61 61 62
46 49 56 59 50 54 50 41 33 30 33 36 51 47 53 58 62 65 67 68 70 70 64 63 65 64 64 64 65 65 64 63 64 64 64 63 62 62 62 61 60 60 60 61
38 34 50 57 50 43 45 43 33 27 29 38 51 43 52 66 73 73 74 75 74 64 63 65 66 65 65 65 64 64 64 62 64 64 63 63 63 61 61 61 61 61 61 61
35 37 52 55 55 51 44 41 47 39 45 36 44 51 61 68 68 71 72 68 67 64 63 64 64 64 65 64 63 65 64 63 64 64 63 62 62 62 62 62 62 62 62 63
41 32 47 52 55 54 49 51 38 37 30 30 40 44 48 55 60 65 65 68 61 62 63 64 64 64 65 64 64 64 64 63 63 63 63 63 63 63 62 62 62 63 62 64
41 36 39 46 44 42 42 41 42 41 39 36 33 41 55 58 60 64 66 65 62 63 64 65 65 65 65 65 65 64 64 63 62 63 63 62 62 63 62 62 63 63 63 63
41 34 30 37 48 53 48 43 41 34 35 39 43 44 63 62 64 67 64 65 65 66 66 65 65 66 65 65 65 65 63 63 63 64 64 62 62 62 62 62 63 63 63 63
40 32 26 31 39 47 44 46 43 39 42 40 36 43 64 63 67 71 61 65 66 65 65 65 66 66 66 66 66 66 64 65 64 64 62 62 62 62 61 62 62 63 63 63
45 34 31 24 33 40 37 43 44 38 32 39 44 48 58 63 65 68 65 66 66 66 66 66 66 67 67 68 68 66 65 66 64 64 63 66 63 62 62 62 62 63 64 63
38 31 38 38 40 42 40 41 44 40 40 34 43 42 49 55 65 69 65 67 66 66 66 66 66 67 68 68 68 68 67 66 64 69 68 67 66 62 62 62 62 63 63 63
39 33 36 33 41 41 38 43 44 45 45 44 44 43 57 60 62 64 68 68 66 67 68 68 69 68 68 69 68 68 68 66 66 67 69 66 65 63 62 62 62 62 62 61
34 32 33 30 38 39 33 41 44 46 49 47 40 49 58 58 59 57 63 69 68 68 69 69 70 69 70 70 70 66 68 65 66 66 69 69 66 64 63 63 62 61 60 60
37 33 34 29 34 25 41 49 49 45 50 50 52 55 59 59 58 60 61 65 70 70 71 71 72 71 71 71 69 67 68 67 67 67 69 69 66 64 63 62 60 60 59 59
44 39 31 30 31 37 44 41 41 42 45 50 46 60 66 62 61 60 61 62 64 73 73 73 74 72 71 71 68 68 68 67 68 67 71 68 67 64 62 61 59 59 60 58
46 44 34 32 28 28 35 40 46 47 40 49 48 51 57 58 50 53 58 61 64 74 75 75 74 73 71 71 69 68 67 66 66 68 70 70 68 65 61 60 59 59 59 58
35 35 31 31 30 34 40 41 49 38 38 47 49 53 55 55 55 61 60 61 64 68 74 76 74 72 72 71 70 68 67 66 68 71 70 68 65 64 62 60 59 59 59 58
32 31 32 32 32 29 42 43 38 41 47 47 49 54 54 57 60 62 61 60 62 66 72 75 73 72 71 72 71 68 67 70 68 70 70 65 63 67 64 60 59 59 59 60
33 37 33 32 32 41 43 42 47 47 46 47 48 57 57 57 58 62 60 60 62 65 66 70 71 69 71 72 72 68 70 68 67 67 66 64 65 64 62 60 59 58 58 61
40 44 37 36 41 44 46 48 48 49 48 49 52 57 58 57 60 60 61 62 62 66 66 68 68 64 64 70 72 72 70 71 68 66 65 65 64 60 61 61 60 59 58 57
40 40 38 39 44 45 49 49 50 51 51 52 55 58 57 58 59 60 63 64 67 67 69 68 70 65 65 67 69 70 73 69 67 67 66 65 65 63 60 60 59 60 60 60
40 39 36 35 45 43 43 49 52 51 50 51 52 56 59 59 58 60 63 65 66 67 70 70 71 69 68 68 68 71 74 70 67 66 66 65 64 62 62 57 52 42 46 49